SHENZHOU-11 MODULE (41868 NORAD) Tracking and Keplerian Element Data

This shows tracking and keplerian element data for the satellite.

Feedback or suggestion? Click here.




ElementValue
Catalog41868
NameSHENZHOU-11 MODULE
Epoch Orbit9563
Epoch Day202.20066468
Epoch Year2018
RAAN105.7413
Inclination42.7939
Eccentricity0.0002649
Argument of Perigee273.3598
Mean Anonmoly218.2658
Mean Motion15.7278844
Decay Rate7.13E-05
L11 41868U 16061G 18202.20066468 .00007130 00000-0 54366-4 0 9995
L22 41868 42.7939 105.7413 0002649 273.3598 218.2658 15.72788440 95633

Live tracking and technical data element details for SHENZHOU-11 MODULE (NORAD 41868). SHENZHOU-11 MODULE can be tracked NOW for your location showing map with azimuth and elevation plus other details from your city location.

Track the satellite on the map from your city or location and see movement details for azimuth, elevation, latitude, longitude, range, height, and movement on the map or in text.







IsCatalogInMostPopularTable: catalog: 41868, numindb: 84
Update: records affected: 1



GetName: 41868 SHENZHOU-11 MODULE

Hit Count: updated at: Mon, 23 Jul 2018 07:43:34 GMT